TimeEDT,TemperatureF,Dew PointF,Humidity,Sea Level PressureIn,VisibilityMPH,Wind Direction,Wind SpeedMPH,Gust SpeedMPH,PrecipitationIn,Events,Conditions,WindDirDegrees,DateUTC
12:18 AM,71.6,64.4,78,30.24,10.0,SSW,5.8,-,N/A,,Clear,200,2013-07-15 04:18:00
12:38 AM,71.6,64.4,78,30.24,10.0,South,4.6,-,N/A,,Clear,190,2013-07-15 04:38:00
1:04 AM,69.8,64.4,83,30.25,10.0,Calm,Calm,-,N/A,,Clear,0,2013-07-15 05:04:00
2:18 AM,69.8,64.4,83,30.25,10.0,South,3.5,-,N/A,,Clear,190,2013-07-15 06:18:00
2:38 AM,69.8,64.4,83,30.26,10.0,SSW,3.5,-,N/A,,Clear,200,2013-07-15 06:38:00
2:57 AM,68.0,64.4,88,30.26,10.0,South,3.5,-,N/A,,Clear,190,2013-07-15 06:57:00
3:21 AM,68.0,64.4,88,30.26,10.0,Calm,Calm,-,N/A,,Clear,0,2013-07-15 07:21:00
3:39 AM,68.0,62.6,83,30.26,10.0,Calm,Calm,-,N/A,,Clear,0,2013-07-15 07:39:00
4:17 AM,66.2,62.6,88,30.26,10.0,Calm,Calm,-,N/A,,Clear,0,2013-07-15 08:17:00
4:42 AM,66.2,62.6,88,30.26,10.0,Calm,Calm,-,N/A,,Clear,0,2013-07-15 08:42:00
5:03 AM,64.4,60.8,88,30.26,10.0,Calm,Calm,-,N/A,,Clear,0,2013-07-15 09:03:00
5:17 AM,66.2,62.6,88,30.26,10.0,Calm,Calm,-,N/A,,Clear,0,2013-07-15 09:17:00
5:37 AM,66.2,62.6,88,30.27,10.0,Calm,Calm,-,N/A,,Scattered Clouds,0,2013-07-15 09:37:00
6:03 AM,66.2,60.8,83,30.28,10.0,Calm,Calm,-,N/A,,Overcast,0,2013-07-15 10:03:00
6:50 AM,66.2,64.4,94,30.28,10.0,Calm,Calm,-,N/A,,Mostly Cloudy,0,2013-07-15 10:50:00
7:55 AM,69.8,64.4,83,30.29,10.0,West,3.5,-,N/A,,Clear,270,2013-07-15 11:55:00
8:50 AM,73.4,64.4,73,30.29,10.0,West,6.9,-,N/A,,Clear,260,2013-07-15 12:50:00
9:50 AM,78.8,64.4,61,30.30,10.0,West,6.9,-,N/A,,Clear,260,2013-07-15 13:50:00
10:50 AM,82.4,62.6,51,30.30,10.0,WSW,3.5,-,N/A,,Clear,250,2013-07-15 14:50:00
11:24 AM,83.8,62.1,48,30.30,10.0,SSW,5.8,-,N/A,,Clear,210,2013-07-15 15:24:00
11:50 AM,84.2,62.6,48,30.30,10.0,SW,6.9,-,N/A,,Scattered Clouds,230,2013-07-15 15:50:00
12:50 PM,86.0,60.8,43,30.29,10.0,West,8.1,17.3,N/A,,Scattered Clouds,270,2013-07-15 16:50:00
1:50 PM,86.0,60.8,43,30.29,10.0,SSW,10.4,-,N/A,,Mostly Cloudy,200,2013-07-15 17:50:00
2:50 PM,86.0,59.0,40,30.28,10.0,SW,9.2,-,N/A,,Scattered Clouds,230,2013-07-15 18:50:00
3:50 PM,86.0,59.0,40,30.27,10.0,West,5.8,19.6,N/A,,Scattered Clouds,270,2013-07-15 19:50:00
4:55 PM,87.8,60.8,40,30.26,10.0,SW,6.9,-,N/A,,Scattered Clouds,230,2013-07-15 20:55:00
5:50 PM,87.8,60.8,40,30.26,10.0,Calm,Calm,-,N/A,,Scattered Clouds,0,2013-07-15 21:50:00
6:50 PM,78.8,64.4,61,30.26,10.0,NE,8.1,-,N/A,,Mostly Cloudy,50,2013-07-15 22:50:00
7:50 PM,78.8,66.2,65,30.25,10.0,NE,9.2,-,N/A,,Mostly Cloudy,50,2013-07-15 23:50:00
8:50 PM,75.2,64.4,69,30.25,10.0,NE,4.6,-,N/A,,Scattered Clouds,50,2013-07-16 00:50:00
9:50 PM,71.6,64.4,78,30.25,10.0,Calm,Calm,-,N/A,,Scattered Clouds,0,2013-07-16 01:50:00
10:16 PM,70.9,63.7,78,30.26,10.0,Calm,Calm,-,N/A,,Scattered Clouds,0,2013-07-16 02:16:00
10:36 PM,71.1,63.7,77,30.26,10.0,Calm,Calm,-,N/A,,Scattered Clouds,0,2013-07-16 02:36:00
10:56 PM,72.0,64.4,77,30.26,10.0,Calm,Calm,-,N/A,,Clear,0,2013-07-16 02:56:00
11:16 PM,71.6,63.9,76,30.26,7.0,Calm,Calm,-,N/A,,Clear,0,2013-07-16 03:16:00
11:36 PM,70.0,63.1,79,30.26,10.0,Calm,Calm,-,N/A,,Clear,0,2013-07-16 03:36:00
11:56 PM,70.7,63.7,78,30.26,10.0,Calm,Calm,-,N/A,,Clear,0,2013-07-16 03:56:00